Wind_Speed
103 101 92 82 80 81 77 72 65 65 60 53 53 49 64 68 65 62 60 57 57 56 51 53 52 51 48 49 47 44 42 39 39 36 31 35 38 37 35 36 36 38 42 48
109 97 93 91 88 84 82 75 73 71 61 58 57 53 56 55 58 63 63 63 62 61 55 56 55 52 52 50 51 47 44 44 43 43 39 38 40 40 43 46 44 45 44 47
103 96 100 96 91 89 84 81 78 75 66 65 63 56 51 51 52 57 60 62 64 65 65 64 61 55 56 56 53 53 53 50 49 44 49 45 41 46 52 54 49 51 54 54
107 107 106 102 94 94 88 86 82 79 73 71 64 57 59 55 55 53 53 55 60 65 68 67 67 63 61 59 56 53 55 54 50 52 53 53 45 47 48 51 59 60 61 62
106 103 105 101 96 96 92 88 87 82 78 74 68 62 62 59 54 55 55 53 52 50 54 65 63 68 63 62 61 57 59 58 55 54 57 58 63 56 56 57 53 51 58 67
118 111 107 103 103 101 96 92 92 89 85 80 74 67 61 63 62 65 61 61 61 58 56 51 51 58 61 63 62 63 63 60 60 60 58 61 65 66 63 63 67 68 66 68
121 114 107 106 107 104 101 96 97 96 88 81 78 72 61 66 69 71 70 70 64 65 61 58 57 56 56 58 65 62 65 64 63 63 63 66 69 71 73 75 68 76 78 76
121 114 110 107 107 101 100 98 96 94 90 83 83 78 68 69 73 78 77 75 72 71 70 70 67 66 63 61 60 58 60 63 67 65 69 70 71 76 76 78 77 81 84 86
121 116 113 112 107 102 101 102 98 97 94 90 85 80 79 76 77 77 81 82 80 78 78 77 76 74 72 71 70 68 67 66 66 67 69 72 75 78 81 85 85 87 91 88
125 120 120 117 112 108 102 103 101 99 97 94 90 89 86 85 83 84 83 83 85 86 84 83 81 79 77 76 76 74 75 75 75 75 74 73 73 75 75 77 82 81 87 93
128 125 122 118 115 108 105 104 102 101 100 96 92 91 88 86 87 87 87 88 88 88 87 89 89 87 85 84 84 84 83 84 84 83 84 85 83 83 83 84 83 84 83 88
130 128 123 119 115 113 111 109 108 107 103 101 99 95 93 91 92 90 91 95 95 96 94 95 94 93 93 92 91 90 90 91 93 94 93 93 91 91 93 94 94 94 93 94
130 127 123 122 120 116 113 110 109 110 109 104 102 92 93 95 96 95 96 98 100 101 103 102 100 99 98 96 96 97 97 98 99 99 99 101 100 99 102 103 103 104 103 105
133 129 126 117 113 111 113 113 112 113 110 105 104 99 99 103 103 102 101 101 102 105 104 102 101 102 103 103 103 103 103 104 104 104 106 106 106 107 109 110 110 110 111 111
132 131 127 121 118 118 115 117 117 117 110 114 100 106 107 107 106 105 105 107 109 107 106 106 107 109 109 109 109 110 111 112 112 112 113 115 115 116 116 116 117 118 119 120
134 132 130 124 118 118 119 119 119 115 111 113 106 103 105 112 114 113 115 112 113 111 109 110 112 113 114 116 116 116 116 118 119 120 123 123 123 122 122 123 124 125 124 124
137 135 130 127 126 121 125 117 116 112 114 111 115 104 113 115 116 116 119 117 114 117 118 118 120 120 119 119 120 122 123 125 128 129 130 129 128 127 127 127 129 128 129 127
127 128 129 129 133 126 116 118 117 116 117 115 112 110 116 116 120 122 119 120 122 121 122 124 123 123 125 126 127 130 131 131 131 131 132 133 133 133 132 131 131 127 124 121
107 117 122 121 123 114 117 118 118 119 117 118 116 119 118 119 122 120 123 127 126 127 127 126 126 129 131 132 133 133 134 134 134 133 133 135 134 132 130 126 124 120 116 114
97 104 106 113 117 113 105 108 114 117 115 114 115 119 120 122 120 121 127 126 127 128 130 132 132 132 133 136 137 134 133 133 129 126 123 121 121 121 119 114 115 110 102 98
96 94 95 99 99 99 92 93 99 106 104 113 119 121 121 118 117 119 122 125 126 126 127 127 128 128 126 124 121 118 118 114 113 113 110 109 107 104 102 97 93 93 92 93
87 84 81 78 79 80 77 71 75 85 103 108 108 106 102 104 109 114 118 118 118 115 113 112 108 108 106 106 102 99 100 98 99 97 97 99 98 94 93 94 90 90 90 93
84 82 81 74 66 63 64 70 77 84 93 97 93 90 96 99 100 99 98 100 103 101 100 102 100 95 94 92 90 88 90 92 92 91 90 90 91 92 91 89 89 91 92 91
89 84 76 68 63 65 69 75 77 78 80 79 82 85 83 86 88 89 90 88 90 90 90 84 81 81 83 85 87 89 91 90 87 83 82 83 84 86 86 86 86 88 90 91
85 75 72 69 70 71 71 71 74 77 77 73 72 71 77 82 82 81 84 79 77 74 74 77 77 78 79 79 77 75 70 70 70 68 67 68 71 73 73 73 74 74 75 75
77 71 70 67 69 70 71 73 69 70 69 66 66 65 72 78 76 71 65 54 56 61 65 65 63 60 59 60 57 58 57 58 59 60 61 62 64 65 66 67 70 72 74 75
Wind_Direction
225 225 225 229 228 228 233 231 231 236 229 232 234 231 236 239 243 240 243 237 239 241 247 246 249 248 254 259 259 259 266 256 267 262 269 270 267 274 275 277 279 285 291 293
225 224 227 227 227 228 229 230 235 238 230 235 232 231 230 234 237 241 242 244 239 241 245 248 248 249 252 255 256 262 266 261 260 253 266 271 265 270 283 285 286 286 283 287
224 225 227 227 228 229 230 230 234 236 232 236 234 233 232 233 236 240 241 244 244 244 247 251 249 249 253 250 254 258 260 252 257 260 258 267 266 281 275 281 284 287 286 290
220 223 226 225 226 229 229 231 235 236 233 235 237 236 239 239 234 238 238 241 245 247 247 247 251 253 251 251 252 256 258 254 257 259 262 260 263 270 282 289 281 284 289 293
221 222 226 227 227 230 230 232 237 237 235 235 235 233 245 243 241 246 246 248 246 247 249 245 252 251 252 253 254 257 254 255 256 259 261 266 270 261 270 265 268 274 278 276
221 220 222 225 228 230 230 233 235 237 236 235 237 234 243 246 248 250 251 253 251 249 252 252 252 253 251 253 258 262 262 257 256 261 263 265 270 268 271 271 267 271 272 275
221 222 219 224 227 229 230 231 235 237 237 236 238 234 232 252 250 253 254 253 254 255 255 255 254 258 255 257 256 260 261 262 260 262 264 265 266 270 269 271 275 268 271 275
225 221 224 226 230 232 233 235 237 239 238 239 238 237 238 246 255 254 254 255 257 258 259 261 260 261 261 261 261 262 263 265 261 262 262 264 266 265 267 271 274 277 275 275
224 223 224 227 231 233 235 236 238 238 239 240 241 241 240 241 253 257 258 256 256 259 261 261 263 264 265 268 272 272 271 270 269 268 268 267 269 269 269 269 274 275 275 274
223 223 226 228 229 229 231 233 236 238 239 240 240 240 241 242 246 255 258 260 261 259 260 262 264 264 266 268 271 273 273 273 274 275 276 276 275 276 276 277 273 278 277 273
224 224 225 228 229 230 233 235 237 240 241 241 241 242 244 245 248 250 257 259 261 263 265 265 265 265 265 267 269 271 272 274 276 276 277 278 278 279 280 280 281 281 280 278
224 226 225 228 230 231 233 235 237 239 240 242 240 241 244 247 248 251 254 259 261 261 261 264 266 267 268 268 269 271 273 274 275 277 278 278 278 279 280 281 282 283 282 282
225 228 228 228 230 232 235 238 240 242 243 244 246 246 249 249 250 250 252 254 259 262 262 262 264 266 269 270 271 272 273 274 275 277 278 279 280 280 280 280 281 282 283 284
224 226 229 228 232 234 237 239 242 244 245 247 248 249 249 251 251 252 254 255 258 260 264 267 267 268 268 269 271 273 274 274 275 276 276 277 279 280 282 283 284 284 284 284
226 228 229 230 231 233 235 237 238 241 243 246 247 250 252 252 254 255 256 256 258 260 262 265 269 270 271 271 272 273 276 277 277 278 279 280 280 280 281 281 283 284 285 287
227 230 232 233 230 233 236 237 240 244 246 248 249 251 253 255 253 253 256 257 259 262 265 266 267 269 271 273 274 275 276 278 278 279 279 280 280 281 281 283 284 285 285 286
230 233 234 235 236 234 236 240 241 242 244 248 249 249 251 253 256 257 257 259 262 263 263 265 268 269 270 272 274 276 277 278 278 279 280 281 282 283 284 285 285 285 285 285
230 232 234 234 237 237 236 239 241 241 243 246 248 250 253 254 256 258 260 261 261 262 264 265 268 270 270 271 272 273 274 275 276 278 280 281 281 282 283 282 282 282 283 283
234 234 234 234 237 239 238 239 241 244 245 246 248 251 253 255 256 257 259 261 265 266 267 268 270 271 271 272 273 274 275 277 277 277 278 277 278 277 276 276 278 280 279 281
232 236 238 238 239 240 239 240 242 244 247 249 250 252 254 256 258 260 263 264 265 266 268 269 271 272 273 274 276 278 280 279 278 278 275 274 274 274 276 278 279 277 276 275
235 236 241 243 243 244 246 247 248 249 252 252 253 255 257 260 262 264 265 267 269 270 271 273 275 276 276 275 276 276 277 276 276 277 277 277 276 276 274 273 273 272 271 272
240 244 243 245 245 246 246 246 251 251 251 254 257 260 264 265 266 266 266 268 269 273 274 276 276 276 277 277 278 279 280 280 277 277 276 277 275 274 273 273 271 271 273 275
231 235 239 243 251 249 247 245 245 251 254 257 264 267 266 268 269 271 273 275 276 277 277 278 280 280 281 281 280 279 276 275 274 274 275 275 276 276 277 277 276 275 275 276
237 240 244 247 246 246 248 251 255 257 258 259 259 262 265 267 269 271 273 275 277 279 281 281 281 280 281 280 278 276 276 273 274 273 274 275 275 276 277 277 277 277 278 278
239 243 244 242 240 241 244 248 250 250 253 257 260 263 264 267 270 273 275 277 278 278 278 278 275 276 276 277 276 276 276 276 277 276 276 278 278 279 279 280 279 278 278 276
235 236 239 239 239 239 240 242 248 253 255 259 262 262 263 267 270 273 272 272 276 277 274 274 271 271 274 275 277 276 276 275 276 278 279 279 279 279 279 279 279 278 277 276
Height
10673 10685 10713 10720 10726 10731 10738 10750 10758 10758 10772 10780 10781 10790 10797 10803 10807 10812 10817 10821 10824 10827 10832 10837 10839 10841 10845 10848 10850 10853 10854 10855 10856 10857 10856 10856 10856 10854 10853 10852 10850 10849 10849 10847
10658 10692 10696 10698 10707 10716 10726 10738 10743 10745 10766 10768 10772 10781 10789 10794 10795 10801 10805 10807 10812 10817 10820 10826 10830 10833 10835 10839 10841 10843 10845 10847 10848 10847 10848 10847 10847 10846 10846 10845 10843 10842 10840 10837
10657 10678 10671 10685 10697 10705 10718 10727 10730 10736 10754 10757 10763 10775 10781 10784 10789 10793 10794 10797 10801 10807 10811 10817 10821 10823 10825 10827 10831 10834 10836 10836 10837 10837 10838 10837 10836 10836 10837 10836 10834 10833 10829 10827
10627 10640 10655 10671 10685 10688 10700 10709 10715 10724 10739 10744 10756 10769 10770 10775 10780 10780 10784 10788 10792 10797 10801 10806 10807 10811 10813 10817 10821 10824 10826 10827 10827 10828 10828 10827 10826 10826 10827 10827 10824 10822 10818 10816
10631 10637 10650 10663 10678 10673 10685 10697 10702 10714 10728 10734 10747 10758 10759 10766 10773 10768 10773 10779 10784 10787 10790 10794 10795 10799 10803 10806 10809 10812 10815 10817 10817 10818 10817 10816 10815 10814 10814 10813 10807 10806 10806 10801
10589 10608 10624 10645 10648 10656 10674 10683 10688 10697 10709 10723 10737 10748 10756 10758 10761 10758 10765 10767 10769 10776 10780 10783 10785 10789 10791 10795 10797 10800 10803 10802 10804 10806 10806 10805 10802 10803 10803 10801 10798 10792 10792 10788
10578 10596 10619 10623 10630 10646 10661 10673 10674 10682 10700 10729 10727 10738 10758 10741 10745 10744 10747 10751 10758 10763 10769 10773 10777 10778 10780 10784 10786 10787 10789 10789 10792 10793 10792 10792 10792 10788 10787 10786 10783 10781 10777 10774
10567 10592 10612 10622 10627 10646 10653 10660 10667 10674 10692 10708 10712 10730 10744 10735 10727 10726 10733 10739 10745 10749 10753 10756 10762 10765 10768 10771 10773 10774 10775 10775 10778 10779 10777 10778 10776 10776 10773 10772 10772 10767 10763 10759
10562 10577 10588 10602 10614 10630 10642 10650 10656 10665 10678 10690 10702 10714 10720 10725 10715 10716 10717 10725 10729 10733 10736 10742 10748 10752 10755 10756 10758 10762 10763 10762 10763 10763 10763 10763 10762 10761 10760 10757 10757 10753 10745 10741
10539 10557 10569 10582 10594 10603 10619 10629 10633 10645 10659 10674 10689 10698 10705 10711 10710 10701 10704 10704 10708 10715 10722 10728 10732 10737 10742 10743 10745 10747 10745 10745 10744 10746 10746 10746 10745 10742 10740 10740 10738 10735 10731 10720
10523 10538 10554 10567 10582 10597 10605 10618 10627 10634 10641 10658 10673 10683 10687 10692 10691 10691 10687 10690 10694 10699 10705 10711 10716 10720 10726 10728 10729 10730 10730 10729 10727 10727 10728 10728 10727 10726 10722 10718 10717 10715 10714 10706
10508 10523 10544 10555 10566 10576 10585 10596 10603 10608 10622 10632 10646 10659 10667 10673 10677 10681 10682 10676 10679 10684 10692 10693 10696 10700 10705 10707 10709 10712 10712 10712 10711 10710 10709 10709 10709 10707 10702 10698 10698 10695 10693 10687
10496 10508 10521 10537 10550 10563 10575 10585 10590 10594 10601 10621 10632 10660 10649 10656 10655 10659 10663 10665 10665 10667 10670 10676 10679 10681 10684 10689 10692 10693 10693 10693 10691 10689 10689 10686 10687 10684 10680 10678 10676 10673 10671 10666
10474 10490 10503 10528 10549 10552 10559 10567 10571 10574 10589 10602 10612 10625 10632 10630 10636 10641 10648 10653 10654 10649 10648 10653 10660 10665 10668 10669 10670 10671 10671 10671 10670 10667 10665 10662 10662 10659 10655 10652 10649 10648 10646 10642
10460 10472 10488 10501 10517 10529 10533 10534 10540 10545 10576 10571 10609 10598 10596 10611 10617 10626 10630 10628 10629 10636 10641 10642 10642 10645 10647 10648 10648 10647 10645 10645 10644 10642 10640 10638 10638 10635 10633 10629 10625 10620 10618 10614
10444 10455 10467 10485 10502 10508 10509 10514 10528 10551 10567 10563 10580 10590 10581 10581 10591 10597 10596 10608 10612 10622 10626 10628 10627 10626 10626 10625 10624 10625 10625 10622 10619 10616 10612 10610 10609 10608 10605 10601 10598 10594 10589 10584
10431 10445 10458 10465 10479 10489 10491 10521 10526 10540 10534 10551 10550 10561 10550 10564 10568 10575 10584 10592 10596 10593 10599 10608 10608 10607 10610 10609 10607 10603 10599 10595 10590 10590 10587 10584 10582 10579 10574 10570 10567 10565 10559 10555
10416 10425 10433 10443 10450 10464 10498 10498 10505 10512 10515 10523 10531 10534 10537 10545 10546 10553 10557 10565 10574 10579 10580 10582 10585 10584 10583 10584 10585 10581 10578 10576 10571 10567 10562 10558 10555 10550 10544 10539 10533 10531 10527 10524
10394 10402 10419 10432 10443 10459 10470 10479 10489 10496 10506 10503 10511 10508 10516 10520 10526 10533 10532 10540 10546 10550 10554 10557 10561 10560 10558 10554 10552 10551 10547 10545 10545 10540 10535 10529 10525 10520 10515 10509 10507 10502 10499 10495
10378 10391 10401 10415 10423 10442 10454 10455 10470 10474 10486 10486 10487 10487 10493 10496 10513 10512 10513 10523 10524 10525 10525 10526 10529 10529 10528 10527 10523 10518 10514 10511 10506 10502 10498 10495 10491 10487 10485 10483 10480 10476 10473 10469
10374 10379 10399 10409 10416 10429 10445 10450 10454 10461 10474 10459 10467 10470 10477 10487 10492 10492 10492 10492 10493 10497 10501 10500 10500 10499 10498 10494 10490 10486 10482 10478 10474 10470 10467 10465 10462 10460 10457 10453 10449 10449 10447 10444
10369 10380 10391 10397 10407 10418 10429 10434 10437 10433 10427 10434 10446 10458 10464 10464 10463 10464 10468 10470 10471 10474 10475 10475 10475 10473 10469 10465 10459 10456 10452 10448 10445 10442 10439 10436 10434 10432 10432 10430 10426 10424 10422 10420
10351 10365 10374 10385 10400 10407 10411 10409 10407 10409 10416 10429 10442 10443 10438 10440 10441 10443 10443 10445 10448 10446 10443 10442 10441 10439 10438 10437 10435 10431 10429 10426 10422 10419 10416 10413 10411 10409 10409 10407 10404 10402 10399 10397
10343 10354 10366 10376 10384 10390 10393 10395 10400 10404 10404 10413 10417 10420 10422 10419 10421 10423 10424 10423 10422 10421 10419 10417 10415 10414 10413 10412 10411 10409 10406 10402 10399 10397 10394 10392 10389 10387 10386 10384 10381 10379 10377 10374
10334 10340 10354 10363 10368 10372 10376 10379 10378 10381 10386 10395 10402 10407 10404 10402 10404 10403 10404 10403 10402 10401 10401 10399 10395 10391 10390 10389 10389 10387 10383 10380 10378 10376 10374 10372 10371 10369 10366 10363 10360 10358 10355 10352
10315 10327 10337 10349 10351 10354 10355 10357 10363 10370 10377 10384 10388 10389 10384 10383 10386 10385 10388 10387 10387 10386 10386 10384 10381 10377 10373 10370 10368 10366 10364 10362 10360 10358 10356 10355 10353 10350 10347 10345 10342 10339 10335 10330